Location: Quail Creek Observatory
(32.9410°N, 97.1240°W)
Time: 09:25:57
(UTC-06:00)

Daily predictions for brighter satellites

Satellite Brightness Start Highest point End
(mag) Time Altitude Azimuth Time Altitude Azimuth Time Altitude Azimuth
COSMOS 2487 3.4 17:41:29 10° N 17:44:39 28° ENE 17:47:47 10° SE
Nadezhda 3 Rocket 4.4 17:39:55 10° SSE 17:45:41 43° E 17:51:33 10° NNE
Cosmos 2278 Rocket 3.0 17:40:29 10° SW 17:45:59 52° WNW 17:51:30 10° N
Cosmos 1346 Rocket 2.8 17:45:01 10° S 17:48:51 60° E 17:52:41 10° NNE
SMAP 3.1 17:46:27 10° SSE 17:50:59 56° ENE 17:55:32 10° N
Genesis I 3.2 17:53:30 10° NNW 17:57:22 56° ENE 18:01:11 10° SE
Cosmos 1455 Rocket 3.4 17:53:52 10° N 17:58:17 73° W 18:02:42 10° S
SL-24 DEB 4.4 17:55:25 10° NNE 18:00:03 56° E 18:04:36 10° S
Delta 2 Rocket 3.3 17:58:34 10° W 18:02:05 58° N 18:05:39 12° ENE
Timation 1 Rocket 4.3 17:58:44 10° SSW 18:04:41 83° ESE 18:10:40 10° NNE
SKYMED 2 4.1 18:00:56 10° NNE 18:04:59 38° E 18:09:00 10° SSE
NOSS 2-1 (D) 3.5 18:04:44 10° SW 18:08:31 68° WNW 18:12:33 10° NNE
Cosmos 1833 Rocket 3.2 18:03:37 10° N 18:08:47 35° ENE 18:13:53 10° SE
NOSS 2-1 (C) 3.5 18:05:24 10° SW 18:09:12 70° WNW 18:13:16 10° NNE
IDEFIX/ARIANE 42P 2.6 18:05:04 10° SSE 18:10:16 89° W 18:15:28 10° NNW
Tiangong 1 3.2 18:10:16 10° NW 18:12:13 16° NNW 18:14:01 11° NNE
NOSS 7 (E) 4.4 18:08:40 10° SSW 18:12:23 77° ESE 18:15:26 12° NNE
Intercosmos 25 3.6 18:10:27 10° NNE 18:13:24 34° E 18:16:54 10° SSE
Cosmos 2082 Rocket 2.4 18:10:36 10° N 18:16:05 49° ENE 18:21:35 10° SE
Cosmos 1500 3.3 18:13:24 10° N 18:17:15 82° W 18:21:06 10° S
Okean 1-7 Rocket 3.6 18:12:55 10° S 18:17:23 69° E 18:21:51 10° NNE
Cosmos 1743 3.1 18:13:52 10° N 18:17:33 41° E 18:21:10 10° SSE
FALCON 9 R/B 4.2 17:42:42 10° WSW 18:17:46 88° N 18:24:36 16° E
ASTRO F (AKARI) 4.4 18:14:39 10° N 18:17:48 74° WNW 18:20:59 10° SSW
Cosmos 1809 Rocket 4.4 18:11:53 10° N 18:18:02 77° E 18:24:07 10° S
Thor Agena Rocket 4.5 18:13:49 10° N 18:18:53 51° WNW 18:23:58 10° SSW
NOSS 7 (D) 4.4 18:19:34 10° SSW 18:23:18 86° WNW 18:25:57 15° NNE
Meteor 1-28 Rocket 3.9 18:21:16 14° NE 18:24:01 33° E 18:27:26 10° SSE
Meteor 1-19 Rocket 4.2 18:20:38 10° S 18:26:24 79° E 18:32:16 10° N
Cosmos 1484 Rocket 2.7 18:23:27 10° SSE 18:27:06 54° ENE 18:30:44 10° N
NOSS 2-1 (E) 4.2 18:24:13 10° SW 18:27:55 46° NW 18:31:57 10° NNE
Okean 2 4.2 18:24:25 10° SSE 18:28:03 30° E 18:30:08 20° NE
DMSP B5D1-3 4.5 18:30:39 10° NNE 18:35:46 66° ESE 18:40:50 10° S
Cosmos 1934 Rocket 4.3 18:30:14 10° N 18:36:10 44° E 18:42:09 10° SSE
CZ-4 R/B 3.9 18:36:45 10° SSW 18:40:13 25° W 18:43:39 10° NW
Cosmos 1535 Rocket 4.4 18:38:07 10° N 18:44:22 69° E 18:50:29 10° SSE
Cosmos 1606 Rocket 3.9 18:41:47 10° N 18:46:03 43° E 18:50:18 10° SSE
Abrixas 3.3 18:44:27 10° NW 18:46:38 34° N 18:46:38 34° N
MSX 4.4 18:44:15 10° S 18:49:53 59° W 18:55:34 10° NNW
Cosmos 2369 Rocket 2.9 18:45:13 10° SSE 18:50:05 31° ESE 18:50:46 30° E
Meteor 1-23 Rocket 4.1 18:44:36 10° S 18:50:19 79° E 18:55:59 10° N
CZ-2C R/B 4.4 18:47:15 10° SSW 18:51:38 31° W 18:56:08 10° NW
COSMO-SKYMED 1 3.3 18:48:48 10° N 18:53:02 53° WNW 18:57:15 10° SSW
Meteor 2-9 Rocket 4.0 18:48:45 10° N 18:54:05 60° E 18:59:18 10° SSE
Meteor 2-4 Rocket 3.6 18:48:56 10° S 18:54:19 81° W 18:59:41 10° N
Cosmos 2239 Rocket 4.4 18:50:51 10° N 18:57:02 90° ENE 19:03:11 10° S
Cosmos 2056 Rocket 3.8 18:54:12 10° SSW 18:59:33 70° WNW 19:04:14 13° N
Cosmos 1025 Rocket 3.6 18:55:50 10° SSW 19:00:07 57° W 19:04:28 10° N
Cosmos 407 Rocket 4.1 18:58:51 10° N 19:02:22 34° NE 19:02:22 34° NE
NOAA 12 4.0 18:58:49 10° SSE 19:04:01 65° ENE 19:09:14 10° N
NOSS 3-4 (A) 3.9 18:58:10 10° NNW 19:05:09 56° ENE 19:11:08 16° SE
NOSS 3-4 (C) 3.9 18:58:16 10° NNW 19:05:16 55° ENE 19:10:59 17° SE
Cosmos 1821 Rocket 4.1 19:02:58 10° N 19:09:02 75° W 19:15:08 10° S
Cosmos 1340 2.6 19:06:31 10° S 19:09:53 68° SSE 19:09:53 68° SSE
BREEZE M DEB (TANK) 4.5 19:10:56 10° NNW 19:15:41 42° NE 19:18:05 36° ENE
ATLAS 3B CENTAUR R/B 3.7 18:58:41 10° W 19:19:20 67° SSW 19:23:21 33° ESE
Cosmos 1605 Rocket 3.8 19:13:34 10° N 19:19:50 72° E 19:25:58 10° SSE
Cosmos 1943 Rocket 4.2 19:17:58 10° SSE 19:18:47 13° SSE 19:18:47 13° SSE
METEOR-M 4.0 19:21:59 10° SSE 19:27:19 87° WSW 19:32:41 10° NNW
Cosmos 1666 4.2 19:27:56 10° NNW 19:31:31 36° W 19:35:04 10° SSW
Gbstr 26 Del rocket 4.3 19:33:01 10° SSW 19:41:05 69° SE 19:41:59 64° E
Cosmos 1452 Rocket 3.9 19:43:25 10° SSW 19:48:34 59° WNW 19:48:37 59° WNW
Cosmos 1727 Rocket 4.4 19:46:18 10° SSW 19:52:25 59° W 19:55:42 28° NNW
Cosmos 2369 Rocket 4.0 20:29:04 10° WSW 20:32:38 27° W 20:32:38 27° W
